{"data":{"norad_id":65759,"epoch":"2026-09-20T22:35:07.698912Z","epoch_age_seconds":70489,"freshness":"FRESH","line1":"1 65759U 25216AB  26263.94106133  .00021914  00000+0  65720-3 0  9993","line2":"2 65759  53.1577 143.3980 0001101 112.6787 247.4333 15.34429377 56434","mean_motion":15.34429377,"eccentricity":0.0001101,"inclination_deg":53.1577,"raan_deg":143.398,"arg_perigee_deg":112.6787,"mean_anomaly_deg":247.4333,"bstar":0.0006572,"rev_number":5643,"period_min":93.845961344626,"perigee_km":461.86276006798,"apogee_km":463.36909386249,"semimajor_km":6840.7529269652,"source":"CELESTRAK","updated_at":"2026-09-21T09:00:35.712302Z"}}